[[{"header":{"parameterUnit":"m.s-1","parameterCategory":1,"la1":30.2991,"la2":30.254,"lo1":-89.0895,"lo2":-89.0444,"dy":0.0017,"dx":0.0017,"nx":28,"ny":28,"refTime":"2024-12-04T03:00:00:Z","depth":0,"parameterNumber":2,"parameterNumberName":"U-component_of_WINDS"},"data":[0,0,0,0,0,0,0,0,0,0,0,0,0,0,0,0,0,0,0,0,0,0,0,0,0,0,0,0,0,0,0,0,0,0,0,0,0,0,0,0,0,0,0,0,0,0,0,0,0,0,0,0,0,0,0,0,0,0,-2.1835,-2.1836,0,-2.1868,-2.1868,-2.1869,-2.1813,-2.1811,-2.181,-2.1808,-2.1841,-2.1844,-2.1846,0,0,0,0,0,0,0,0,0,0,0,0,0,-2.1724,-2.1726,-2.1835,-2.1836,-2.1836,-2.1868,-2.1868,-2.1869,-2.1814,-2.1811,-2.1809,-2.1807,-2.184,-2.1843,-2.1847,0,0,0,0,0,0,0,0,0,0,0,0,0,-2.1766,-2.1727,-2.1835,-2.1812,-2.1811,-2.1868,-2.1868,-2.1869,-2.1814,-2.1811,-2.1809,-2.1806,-2.1839,-2.1843,-2.1847,-2.1928,0,0,-2.1859,-2.1861,0,0,0,0,0,0,0,0,-2.1764,-2.177,-2.1815,-2.1814,-2.1812,-2.1834,-2.1841,-2.1889,-2.1815,-2.1813,-2.1808,-2.1805,-2.1841,-2.1845,-2.1857,-2.1929,-2.1931,-2.1859,-2.1862,-2.1864,-2.1865,0,0,0,0,0,0,0,-2.1761,-2.1768,-2.1848,-2.1816,-2.1814,-2.18,-2.1803,-2.185,-2.1842,-2.1813,-2.1809,-2.1814,-2.184,-2.1853,-2.1857,-2.1931,-2.1859,-2.1863,-2.1865,-2.1867,-2.207,-2.2072,0,0,0,0,0,0,-2.1761,-2.1766,-2.1847,-2.1849,-2.1781,-2.1804,-2.1808,-2.183,-2.1842,-2.1841,-2.1816,-2.1811,-2.1848,-2.1853,-2.1858,-2.1952,-2.1864,-2.1867,-2.187,-2.2067,-2.207,-2.2073,0,0,0,0,0,0,-2.1759,-2.1769,-2.1846,-2.1807,-2.1815,-2.1809,-2.1835,-2.1832,-2.1845,-2.1844,-2.1842,-2.1831,-2.1846,-2.1853,-2.191,-2.1952,-2.1869,-2.1873,-2.2063,-2.2068,-2.2072,-2.2141,0,0,0,0,0,0,-2.1756,-2.1768,-2.1799,-2.1808,-2.1818,-2.1898,-2.1837,-2.1834,-2.1852,-2.1846,-2.1858,-2.1857,-2.1844,-2.1905,-2.1914,-2.1956,-2.1876,-2.2059,-2.2065,-2.207,-2.2135,-2.2148,-2.2158,0,0,0,0,0,-2.1752,-2.1818,-2.1801,-2.1811,-2.1857,-2.1901,-2.1906,-2.189,-2.1856,-2.1887,-2.1886,-2.1857,-2.1947,-2.1911,-2.1922,-2.1965,-2.2056,-2.2063,-2.207,-2.213,-2.2145,-2.2158,0,0,0,0,0,0,-2.1815,-2.1819,-2.18,-2.1871,-2.1886,-2.1891,-2.193,-2.1907,-2.1932,-2.1925,-2.1903,-2.1906,-2.1968,-2.1973,-2.1933,-2.2043,-2.1996,-2.2005,-2.2038,-2.2052,-2.2064,-2.2061,-2.1879,0,0,0,0,0,-2.1837,-2.1873,-2.1874,-2.1936,-2.1945,-2.1936,-2.1955,-2.1941,-2.1955,-2.1961,-2.1964,-2.198,-2.2011,-2.2032,-2.2061,-2.2136,-2.2137,-2.2171,-2.2183,-2.2192,-2.22,-2.2238,-2.2253,-2.2096,-2.2096,-2.2095,0,0,-2.1883,-2.189,-2.1914,-2.1949,-2.1959,-2.1996,-2.1942,-2.1984,-2.201,-2.1968,-2.2022,-2.2025,-2.204,-2.2106,-2.2136,-2.2112,-2.2244,-2.2201,-2.2208,-2.2211,-2.2247,-2.2261,-2.2275,-2.21,-2.2099,-2.2099,0,0,-2.1985,-2.1995,-2.2047,-2.2057,-2.2073,-2.2066,-2.2079,-2.2088,-2.2088,-2.2142,-2.211,-2.2141,-2.2196,-2.2208,-2.2221,-2.2327,-2.23,-2.2337,-2.2397,-2.2434,-2.2446,-2.2457,-2.2493,-2.2507,-2.2345,-2.2345,-2.2345,0,-2.2041,-2.2095,-2.2076,-2.212,-2.2136,-2.2098,-2.215,-2.2162,-2.2186,-2.2198,-2.2171,-2.2237,-2.2245,-2.2313,-2.2338,-2.2351,-2.2364,-2.2335,-2.2446,-2.2457,-2.2467,-2.2501,-2.2515,-2.2349,-2.2349,-2.2348,-2.2348,0,-2.2161,-2.22,-2.224,-2.2263,-2.2284,-2.2332,-2.2319,-2.2342,-2.2326,-2.2322,-2.2377,-2.2385,-2.2414,-2.2429,-2.2415,-2.2495,-2.2479,-2.245,-2.2401,-2.2486,-2.2518,-2.2531,-2.2355,-2.2354,-2.2352,-2.2351,0,0,-2.2305,-2.2316,-2.2331,-2.2341,-2.2354,-2.2383,-2.2429,-2.2457,-2.2476,-2.2494,-2.2531,-2.2577,-2.255,-2.2565,-2.2551,-2.2584,-2.2665,-2.255,-2.255,-2.257,-2.2751,-2.2772,-2.2788,-2.2648,-2.265,-2.2652,-2.275,0,-2.2405,-2.2483,-2.2467,-2.2543,-2.2577,-2.2542,-2.2581,-2.2593,-2.2591,-2.2619,-2.2616,-2.2649,-2.2611,-2.2619,-2.265,-2.2648,-2.2701,-2.2641,-2.2681,-2.2682,-2.2677,-2.2805,-2.2828,-2.2919,-2.2762,-2.2764,-2.2766,0,-2.2533,-2.2555,-2.2634,-2.2641,-2.2655,-2.269,-2.2714,-2.2742,-2.2754,-2.275,-2.2766,-2.2745,-2.2789,-2.2741,-2.2801,-2.276,-2.2776,-2.2777,-2.278,-2.2782,-2.2728,-2.2809,-2.2948,-2.2962,-2.2785,-2.2784,-2.2782,0,-2.2628,-2.2677,-2.273,-2.274,-2.2749,-2.2775,-2.278,-2.279,-2.2807,-2.2828,-2.2839,-2.2864,-2.2878,-2.2898,-2.2884,-2.2851,-2.2946,-2.2897,-2.2942,-2.2943,-2.2963,-2.2962,-2.3105,-2.2975,-2.2975,-2.2975,-2.2975,0,-2.2741,-2.2791,-2.2773,-2.2806,-2.286,-2.284,-2.2894,-2.2895,-2.2904,-2.2936,-2.2907,-2.2937,-2.2918,-2.2946,-2.2936,-2.2986,-2.2993,-2.299,-2.2986,-2.2992,-2.2992,-2.3,-2.2993,-2.2979,-2.2978,-2.2977,-2.2976,0,-2.2856,-2.2846,-2.2901,-2.2905,-2.2907,-2.2947,-2.295,-2.298,-2.2975,-2.3015,-2.3024,-2.3016,-2.3048,-2.3036,-2.3071,-2.3063,-2.3127,-2.3115,-2.3122,-2.3119,-2.3165,-2.316,-2.3318,-2.3337,-2.3196,-2.3197,-2.3198,0,-2.2928,-2.2965,-2.2973,-2.2992,-2.2999,-2.303,-2.3047,-2.3029,-2.3048,-2.3065,-2.3093,-2.3122,-2.3144,-2.3197,-2.3194,-2.3219,-2.3208,-2.3261,-2.3211,-2.3215,-2.3207,-2.3204,-2.3207,-2.3271,-2.3273,-2.3274,-2.3275,0,-2.3057,-2.305,-2.3076,-2.31,-2.3121,-2.3139,-2.3155,-2.3172,-2.3155,-2.3177,-2.3209,-2.3227,-2.3261,-2.329,-2.3313,-2.3317,-2.3293,-2.3291,-2.3302,-2.3308,-2.331,-2.3308,-2.3148,-2.3287,-2.3286,-2.3285,-2.3284,-2.3284,-2.3152,-2.3183,-2.3192,-2.3222,-2.3231,-2.3246,-2.3274,-2.3272,-2.3298,-2.3324,-2.3312,-2.3349,-2.3359,-2.3387,-2.3395,-2.3423,-2.3402,-2.3419,-2.3423,-2.3428,-2.3433,-2.3306,-2.3427,-2.3427,-2.3426,-2.3426,-2.3426,0,-2.3278,-2.3282,-2.331,-2.3332,-2.3354,-2.333,-2.3345,-2.3366,-2.3398,-2.341,-2.3432,-2.3468,-2.3496,-2.3494,-2.352,-2.3542,-2.3532,-2.3549,-2.3547,-2.3548,-2.3451,-2.3437,-2.3557,-2.3557,-2.3557,-2.3557,-2.3557,-2.3557,-2.3346,-2.3396,-2.339,-2.3444,-2.3448,-2.3483,-2.3494,-2.3507,-2.3516,-2.3557,-2.358,-2.3579,-2.3585,-2.361,-2.3634,-2.3633,-2.3643,-2.3664,-2.3659,-2.3568,-2.3555,-2.3543,-2.353,-2.3667,-2.3667,-2.3754,-2.3754,-2.3755]},{"header":{"parameterUnit":"m.s-1","parameterCategory":1,"la1":30.2991,"la2":30.254,"lo1":-89.0895,"lo2":-89.0444,"dy":0.0017,"dx":0.0017,"nx":28,"ny":28,"refTime":"2024-12-04T03:00:00:Z","depth":0,"parameterNumber":3,"parameterNumberName":"V-component_of_WINDS"},"data":[0,0,0,0,0,0,0,0,0,0,0,0,0,0,0,0,0,0,0,0,0,0,0,0,0,0,0,0,0,0,0,0,0,0,0,0,0,0,0,0,0,0,0,0,0,0,0,0,0,0,0,0,0,0,0,0,0,0,-3.8968,-3.8968,0,-3.9024,-3.9024,-3.9025,-3.8947,-3.8945,-3.8942,-3.8939,-3.8992,-3.8996,-3.9,0,0,0,0,0,0,0,0,0,0,0,0,0,-3.8788,-3.8792,-3.8967,-3.8968,-3.8969,-3.9023,-3.9024,-3.9025,-3.8948,-3.8945,-3.8941,-3.8938,-3.8991,-3.8996,-3.9,0,0,0,0,0,0,0,0,0,0,0,0,0,-3.8857,-3.8793,-3.8967,-3.8937,-3.8935,-3.9023,-3.9024,-3.9025,-3.8949,-3.8944,-3.894,-3.8936,-3.8989,-3.8995,-3.9001,-3.912,0,0,-3.9019,-3.9022,0,0,0,0,0,0,0,0,-3.8854,-3.8864,-3.8941,-3.8939,-3.8937,-3.8974,-3.898,-3.9057,-3.895,-3.8943,-3.8939,-3.8934,-3.8989,-3.8995,-3.9014,-3.9123,-3.9125,-3.902,-3.9023,-3.9026,-3.9028,0,0,0,0,0,0,0,-3.8849,-3.8861,-3.8989,-3.8942,-3.894,-3.8919,-3.8924,-3.8994,-3.8989,-3.8944,-3.8938,-3.8946,-3.8987,-3.9009,-3.9015,-3.9126,-3.902,-3.9025,-3.9029,-3.9031,-3.9332,-3.9337,0,0,0,0,0,0,-3.8848,-3.8858,-3.8988,-3.8991,-3.8885,-3.8926,-3.8931,-3.8966,-3.8988,-3.8987,-3.8949,-3.8942,-3.9001,-3.9008,-3.9017,-3.9156,-3.9026,-3.9031,-3.9035,-3.9328,-3.9333,-3.9338,0,0,0,0,0,0,-3.8845,-3.8861,-3.8985,-3.8923,-3.8937,-3.8933,-3.8973,-3.897,-3.8991,-3.8992,-3.899,-3.8973,-3.8998,-3.9008,-3.9095,-3.9157,-3.9034,-3.904,-3.9323,-3.933,-3.9336,-3.9437,0,0,0,0,0,0,-3.884,-3.886,-3.8907,-3.8925,-3.8941,-3.9065,-3.8977,-3.8974,-3.9002,-3.8993,-3.9014,-3.9013,-3.8995,-3.9086,-3.9101,-3.9163,-3.9044,-3.9317,-3.9326,-3.9334,-3.9428,-3.9446,-3.9462,0,0,0,0,0,-3.8834,-3.8932,-3.8909,-3.8925,-3.8999,-3.9068,-3.9077,-3.9057,-3.9008,-3.9053,-3.9054,-3.9012,-3.9148,-3.9096,-3.9112,-3.9176,-3.9313,-3.9323,-3.9333,-3.942,-3.9443,-3.9461,0,0,0,0,0,0,-3.892,-3.8934,-3.8909,-3.9016,-3.9042,-3.9055,-3.9112,-3.9081,-3.912,-3.911,-3.9081,-3.9086,-3.9178,-3.9186,-3.9128,-3.9292,-3.9222,-3.9236,-3.9283,-3.9304,-3.9321,-3.9316,-3.9049,0,0,0,0,0,-3.8952,-3.9008,-3.9017,-3.9111,-3.9125,-3.9117,-3.9146,-3.9128,-3.9153,-3.9162,-3.9169,-3.9194,-3.9241,-3.9273,-3.9318,-3.9429,-3.9431,-3.9481,-3.9498,-3.9512,-3.9523,-3.9581,-3.9602,-3.9371,-3.9371,-3.9371,0,0,-3.9017,-3.9032,-3.9069,-3.9128,-3.9146,-3.9203,-3.9126,-3.919,-3.9232,-3.9172,-3.9254,-3.926,-3.9285,-3.9384,-3.9428,-3.9393,-3.9588,-3.9525,-3.9536,-3.954,-3.9593,-3.9615,-3.9635,-3.9378,-3.9377,-3.9375,0,0,-3.9166,-3.9184,-3.9263,-3.9282,-3.9311,-3.9304,-3.9324,-3.9342,-3.9344,-3.9426,-3.9382,-3.943,-3.9514,-3.9533,-3.9553,-3.9709,-3.9671,-3.9724,-3.9812,-3.9868,-3.9886,-3.9902,-3.9956,-3.9975,-3.9736,-3.9736,-3.9736,0,-3.9243,-3.9329,-3.9307,-3.9375,-3.9401,-3.935,-3.9429,-3.9449,-3.949,-3.9508,-3.9469,-3.9572,-3.9586,-3.9687,-3.9725,-3.9745,-3.9764,-3.9721,-3.9886,-3.9901,-3.9916,-3.9967,-3.9987,-3.9742,-3.9741,-3.9741,-3.974,0,-3.9422,-3.9482,-3.9543,-3.9585,-3.9618,-3.9691,-3.9678,-3.9714,-3.9693,-3.969,-3.9773,-3.9788,-3.9833,-3.9857,-3.9836,-3.9956,-3.9933,-3.9891,-3.982,-3.9944,-3.9991,-4.0011,-3.9751,-3.9749,-3.9747,-3.9745,0,0,-3.9625,-3.9654,-3.9676,-3.9694,-3.9722,-3.9767,-3.9836,-3.9882,-3.9913,-3.9943,-3.9999,-4.0071,-4.0031,-4.0055,-4.0036,-4.0086,-4.0206,-4.0037,-4.0037,-4.0066,-4.0336,-4.0366,-4.0389,-4.0182,-4.0186,-4.0189,-4.0333,0,-3.9772,-3.9894,-3.9876,-3.9993,-4.0047,-4.0,-4.006,-4.0082,-4.0082,-4.0126,-4.0125,-4.0175,-4.0121,-4.0134,-4.0182,-4.0182,-4.0259,-4.0171,-4.0232,-4.0234,-4.0225,-4.0414,-4.0447,-4.0583,-4.0351,-4.0355,-4.0357,0,-3.9959,-3.9997,-4.012,-4.0138,-4.016,-4.0214,-4.0254,-4.0298,-4.0322,-4.0318,-4.0344,-4.0316,-4.0384,-4.0313,-4.0405,-4.0345,-4.0369,-4.0373,-4.0377,-4.0381,-4.0302,-4.0421,-4.0625,-4.0645,-4.0386,-4.0384,-4.0381,0,-4.0093,-4.0174,-4.0258,-4.0275,-4.0298,-4.0337,-4.0349,-4.0368,-4.0397,-4.0431,-4.0449,-4.0491,-4.0513,-4.0545,-4.0528,-4.0479,-4.0622,-4.0551,-4.0618,-4.0619,-4.0649,-4.0647,-4.0859,-4.0668,-4.0668,-4.0667,-4.0667,0,-4.0258,-4.0334,-4.0318,-4.0369,-4.0453,-4.0431,-4.0513,-4.0518,-4.0536,-4.0586,-4.0548,-4.0595,-4.0571,-4.0616,-4.0603,-4.068,-4.0691,-4.0688,-4.0683,-4.069,-4.0691,-4.0704,-4.0694,-4.0673,-4.0672,-4.0671,-4.067,0,-4.042,-4.0413,-4.0501,-4.0516,-4.0521,-4.0582,-4.0594,-4.0641,-4.0638,-4.0701,-4.0715,-4.0709,-4.076,-4.0747,-4.0802,-4.0793,-4.0889,-4.0874,-4.0882,-4.0877,-4.0945,-4.0939,-4.1172,-4.12,-4.0993,-4.0995,-4.0997,0,-4.0525,-4.0583,-4.0605,-4.0636,-4.0651,-4.0702,-4.0731,-4.0711,-4.0742,-4.0773,-4.0816,-4.0864,-4.0901,-4.0984,-4.0983,-4.1025,-4.1009,-4.1088,-4.1015,-4.102,-4.1008,-4.1004,-4.1009,-4.1102,-4.1104,-4.1106,-4.1108,0,-4.0711,-4.0705,-4.0749,-4.0792,-4.0828,-4.086,-4.0889,-4.0916,-4.0898,-4.0935,-4.0987,-4.1016,-4.1073,-4.112,-4.1158,-4.1167,-4.1134,-4.1131,-4.1148,-4.1155,-4.1157,-4.1155,-4.092,-4.1125,-4.1123,-4.1122,-4.1121,-4.112,-4.0847,-4.0895,-4.0918,-4.0968,-4.0988,-4.1015,-4.106,-4.1062,-4.1106,-4.1151,-4.1137,-4.1196,-4.1216,-4.1264,-4.1279,-4.1324,-4.1293,-4.1319,-4.1326,-4.1332,-4.134,-4.1152,-4.1331,-4.133,-4.133,-4.1329,-4.1329,0,-4.1029,-4.1042,-4.1088,-4.113,-4.1168,-4.1136,-4.1165,-4.1199,-4.1253,-4.1275,-4.1313,-4.1372,-4.1418,-4.1421,-4.1463,-4.1498,-4.1484,-4.151,-4.1506,-4.1509,-4.1365,-4.1345,-4.1521,-4.1521,-4.1521,-4.1521,-4.1521,-4.1521,-4.1128,-4.1208,-4.1205,-4.1293,-4.1304,-4.1363,-4.1383,-4.1407,-4.1425,-4.1494,-4.1532,-4.1534,-4.1549,-4.1592,-4.1631,-4.1631,-4.1647,-4.1679,-4.1673,-4.1538,-4.1519,-4.1501,-4.1481,-4.1683,-4.1683,-4.1812,-4.1813,-4.1814]}]]